Home   Weather   Korbach   Past weeks

Flag for Germany Past Weather in Korbach, Hesse, Germany — Yesterday and Last 2 Weeks

45 °F

Partly cloudy.

Feels Like: 45 °F
Forecast: 35 / 47 °F
Wind: 1 mph from East

Location: Fritzlar Airport

Current Time: Oct 22, 2016 at 7:51:06 PM

Latest Report: Oct 22, 2016 at 6:20 PM

Visibility: N/A

Pressure: 29.95 "Hg

Humidity: 87%

Dew Point: 41 °F

Location of KorbachLocation

Past Weather in Korbach — Graph


Korbach Temperature Yesterday

Maximum temperature yesterday: 48 °F (at 4:20 PM)
Minimum temperature yesterday: 41 °F (at 6:20 AM)
Average temperature yesterday: 44 °F

High & Low Weather Summary for the Past Weeks

High63 °F (Oct 16, 4:20 PM)100% (Oct 10, 1:20 AM)30.27 "Hg (Oct 10, 1:20 AM)
Low32 °F (Oct 10, 2:20 AM)50% (Oct 10, 4:20 PM)29.74 "Hg (Oct 14, 8:20 PM)
Average46 °F86%30.06 "Hg
* Reported Oct 7 6:20 PM — Oct 22 6:20 PM, Korbach, Weather by CustomWeather, © 2016

Note: Actual official high and low records may vary slightly from our data, if they occured in-between our weather recording intervals... More about our weather records


Korbach Weather History for the Previous 24 Hours

Scroll right to see more
Time TempWeatherWind HumidityBarometerVisibility
6:20 PM
Sat, Oct 22
45 °FPartly cloudy.1 mph87%29.95 "HgN/A
5:20 PM46 °FPartly sunny.5 mph76%29.92 "HgN/A
4:20 PM46 °FBroken clouds.6 mph82%29.92 "HgN/A
3:20 PM48 °FBroken clouds.6 mph71%29.92 "HgN/A
2:20 PM46 °FScattered showers. Broken clouds.3 mph82%29.92 "HgN/A
1:20 PM46 °FBroken clouds.1 mph82%29.92 "HgN/A
12:20 PM46 °FBroken clouds.1 mph82%29.92 "HgN/A
11:20 AM45 °FBroken clouds.3 mph93%29.92 "HgN/A
10:48 AM45 °FBroken clouds.2 mph93%29.89 "Hg5 mi
10:20 AM43 °FFog.1 mph100%29.89 "Hg2 mi
9:20 AM41 °FFog.3 mph100%29.89 "Hg1 mi
8:50 AM41 °FFog.2 mph93%29.89 "Hg0 mi
8:20 AM43 °FFog.1 mph93%29.89 "Hg2 mi
7:20 AM43 °FLight rain. Fog.3 mph93%29.86 "Hg2 mi
6:20 AM43 °FFog.3 mph93%29.86 "Hg2 mi
5:20 AM43 °FLight rain. Fog.3 mph93%29.86 "Hg3 mi
4:20 AM43 °FPartly cloudy.5 mph93%29.86 "Hg6 mi
3:20 AM43 °FPartly cloudy.2 mph93%29.89 "Hg4 mi
2:20 AM43 °FLight rain. Partly cloudy.3 mph87%29.89 "Hg4 mi
1:20 AM41 °FLight rain. Partly cloudy.5 mph93%29.89 "Hg4 mi
12:20 AM41 °FLight rain. Passing clouds.8 mph93%29.92 "Hg4 mi
11:20 PM
Fri, Oct 21
43 °FRain. Passing clouds.7 mph87%29.92 "HgN/A
10:55 PM43 °FRain. Passing clouds.5 mph87%29.92 "HgN/A
10:20 PM43 °FLight rain. Partly cloudy.2 mph87%29.92 "HgN/A
9:20 PM43 °FLight rain. Passing clouds.3 mph87%29.92 "HgN/A
8:20 PM43 °FPartly cloudy.3 mph87%29.92 "HgN/A
7:20 PM43 °FPartly cloudy.6 mph87%29.92 "HgN/A
Weather by CustomWeather, © 2016

See weather overviewHow to use our weather pages